[[{"header":{"parameterUnit":"m.s-1","parameterCategory":1,"la1":30.2991,"la2":30.254,"lo1":-89.0895,"lo2":-89.0444,"dy":0.0017,"dx":0.0017,"nx":28,"ny":28,"refTime":"2024-02-27T03:00:00:Z","depth":0,"parameterNumber":2,"parameterNumberName":"U-component_of_WINDS"},"data":[0,0,0,0,0,0,0,0,0,0,0,0,0,0,0,0,0,0,0,0,0,0,0,0,0,0,0,0,0,0,0,0,0,0,0,0,0,0,0,0,0,0,0,0,0,0,0,0,0,0,0,0,0,0,0,0,0,0,0.9416,0.9416,0,0.9365,0.9365,0.9364,0.9331,0.9331,0.933,0.933,0.9279,0.9278,0.9277,0,0,0,0,0,0,0,0,0,0,0,0,0,0.9486,0.9485,0.9416,0.9416,0.9415,0.9366,0.9365,0.9364,0.9331,0.933,0.933,0.933,0.928,0.9278,0.9277,0,0,0,0,0,0,0,0,0,0,0,0,0,0.9447,0.9484,0.9417,0.9392,0.939,0.9366,0.9365,0.9364,0.9331,0.933,0.933,0.933,0.928,0.9279,0.9277,0.9273,0,0,0.9272,0.9271,0,0,0,0,0,0,0,0,0.945,0.9445,0.9397,0.9394,0.9391,0.9354,0.9371,0.9334,0.9331,0.9353,0.933,0.933,0.9305,0.9301,0.9292,0.9271,0.9269,0.9272,0.927,0.927,0.9269,0,0,0,0,0,0,0,0.9452,0.9447,0.9396,0.9396,0.9393,0.9385,0.9379,0.9364,0.9332,0.9351,0.9349,0.9343,0.9303,0.9294,0.9291,0.9268,0.9272,0.927,0.9269,0.9268,0.9241,0.9241,0,0,0,0,0,0,0.9459,0.9449,0.9398,0.9395,0.942,0.9384,0.9377,0.9366,0.9332,0.9326,0.9343,0.9342,0.9297,0.9293,0.9289,0.9282,0.927,0.9268,0.9267,0.9241,0.9241,0.9241,0,0,0,0,0,0,0.946,0.9454,0.94,0.9421,0.9414,0.9383,0.9371,0.9365,0.9356,0.9326,0.932,0.934,0.9297,0.9291,0.9277,0.928,0.9267,0.9266,0.924,0.9241,0.9241,0.9269,0,0,0,0,0,0,0.9462,0.9455,0.9453,0.9421,0.9413,0.9389,0.9371,0.9365,0.9353,0.9351,0.9321,0.9316,0.9296,0.928,0.9276,0.9277,0.9265,0.924,0.9241,0.9241,0.9268,0.927,0.9273,0,0,0,0,0,0.9465,0.9463,0.9453,0.9447,0.941,0.9389,0.9384,0.9361,0.9354,0.9352,0.9332,0.9316,0.928,0.9279,0.9274,0.9275,0.924,0.924,0.9241,0.9267,0.927,0.9273,0,0,0,0,0,0,0.9496,0.9459,0.9447,0.9435,0.9416,0.9384,0.938,0.9365,0.9348,0.9346,0.9319,0.9312,0.9301,0.9287,0.9286,0.9269,0.9258,0.9258,0.9279,0.9282,0.9285,0.9288,0.9263,0,0,0,0,0,0.9502,0.9488,0.9456,0.9449,0.9439,0.9412,0.9402,0.9386,0.9365,0.9356,0.9336,0.9316,0.93,0.929,0.9274,0.9265,0.9258,0.9264,0.9266,0.9268,0.9268,0.9263,0.9265,0.9244,0.9244,0.9244,0,0,0.9513,0.9491,0.9484,0.9454,0.9437,0.9424,0.9405,0.9392,0.9382,0.9354,0.934,0.9324,0.93,0.9289,0.9283,0.9276,0.9273,0.9269,0.9271,0.927,0.9264,0.9266,0.9268,0.9244,0.9244,0.9244,0,0,0.9527,0.9509,0.95,0.9484,0.9458,0.9439,0.9438,0.9408,0.9396,0.9381,0.936,0.9348,0.9321,0.9305,0.9294,0.9301,0.9287,0.9297,0.931,0.9305,0.9306,0.9308,0.931,0.9312,0.9297,0.9297,0.9297,0,0.9544,0.9523,0.9498,0.9486,0.9474,0.9448,0.944,0.9425,0.9395,0.9388,0.9381,0.9346,0.9329,0.9313,0.9315,0.9307,0.9304,0.93,0.9308,0.9309,0.931,0.9312,0.9313,0.9299,0.9298,0.9298,0.9298,0,0.9546,0.9532,0.9528,0.95,0.9487,0.9477,0.9451,0.9441,0.9426,0.9408,0.9393,0.9371,0.935,0.9345,0.933,0.9327,0.9324,0.9313,0.9301,0.9314,0.9316,0.9316,0.9301,0.93,0.93,0.9299,0,0,0.9578,0.9536,0.9535,0.9522,0.9492,0.9481,0.9469,0.9448,0.944,0.9421,0.9411,0.9389,0.9378,0.9365,0.9349,0.9344,0.9352,0.9333,0.9332,0.9338,0.9347,0.9356,0.9357,0.9342,0.9342,0.9342,0.9349,0,0.9588,0.9566,0.9543,0.9529,0.9516,0.9491,0.9482,0.9462,0.9445,0.9432,0.9413,0.9398,0.9385,0.9377,0.9371,0.9352,0.9353,0.9351,0.9332,0.9332,0.9339,0.9358,0.9367,0.9375,0.935,0.935,0.935,0,0.9596,0.9577,0.9562,0.9533,0.9527,0.9518,0.9497,0.9484,0.9462,0.945,0.9435,0.9417,0.9405,0.9394,0.9376,0.9375,0.9366,0.9356,0.9355,0.9353,0.9342,0.9356,0.9377,0.9379,0.9351,0.9351,0.9351,0,0.9621,0.9592,0.958,0.9569,0.9535,0.953,0.9515,0.9492,0.9481,0.9462,0.9455,0.9435,0.9425,0.941,0.9388,0.9382,0.9373,0.936,0.9363,0.9363,0.9362,0.9362,0.9382,0.9356,0.9356,0.9356,0.9356,0,0.9634,0.9626,0.959,0.9583,0.9573,0.9547,0.9538,0.9521,0.9501,0.949,0.9467,0.9457,0.9428,0.9415,0.9397,0.9385,0.9381,0.9371,0.9366,0.9373,0.9374,0.9367,0.9366,0.9356,0.9356,0.9356,0.9356,0,0.9661,0.9637,0.9621,0.959,0.9582,0.9576,0.9549,0.9541,0.9523,0.9509,0.9504,0.9476,0.9459,0.9435,0.9411,0.9399,0.939,0.9382,0.9397,0.9394,0.9398,0.9398,0.9414,0.9415,0.9388,0.9389,0.9389,0,0.9671,0.9664,0.9632,0.9622,0.9609,0.9594,0.9582,0.9556,0.9545,0.9519,0.9514,0.9495,0.9479,0.9453,0.943,0.9412,0.9404,0.9411,0.9401,0.9408,0.9404,0.9405,0.9404,0.9413,0.9413,0.9414,0.9414,0,0.9691,0.9679,0.9663,0.9643,0.9629,0.9612,0.9594,0.9588,0.9558,0.9546,0.9529,0.9516,0.9491,0.9473,0.9451,0.9436,0.942,0.9417,0.9417,0.9424,0.9432,0.9428,0.9404,0.9417,0.9417,0.9417,0.9416,0.9416,0.971,0.9702,0.9679,0.9661,0.9645,0.9628,0.9619,0.9599,0.9584,0.9561,0.9547,0.953,0.9508,0.9477,0.9463,0.945,0.9443,0.9442,0.9442,0.9443,0.9445,0.9435,0.9446,0.9445,0.9445,0.9445,0.9445,0,0.9729,0.9712,0.9697,0.9672,0.9658,0.9644,0.9623,0.9612,0.9598,0.9578,0.9562,0.9542,0.9524,0.95,0.948,0.9474,0.9466,0.947,0.947,0.9467,0.9452,0.9454,0.9477,0.9477,0.9477,0.9477,0.9477,0.9477,0.9737,0.9724,0.971,0.9688,0.9672,0.9655,0.9644,0.9629,0.9613,0.9591,0.9576,0.956,0.9539,0.9517,0.95,0.9494,0.9488,0.9494,0.9485,0.9471,0.9468,0.9465,0.9468,0.9492,0.9492,0.9501,0.9501,0.9501]},{"header":{"parameterUnit":"m.s-1","parameterCategory":1,"la1":30.2991,"la2":30.254,"lo1":-89.0895,"lo2":-89.0444,"dy":0.0017,"dx":0.0017,"nx":28,"ny":28,"refTime":"2024-02-27T03:00:00:Z","depth":0,"parameterNumber":3,"parameterNumberName":"V-component_of_WINDS"},"data":[0,0,0,0,0,0,0,0,0,0,0,0,0,0,0,0,0,0,0,0,0,0,0,0,0,0,0,0,0,0,0,0,0,0,0,0,0,0,0,0,0,0,0,0,0,0,0,0,0,0,0,0,0,0,0,0,0,0,4.5916,4.5916,0,4.5904,4.5904,4.5904,4.5898,4.5898,4.5898,4.5898,4.5882,4.5882,4.5882,0,0,0,0,0,0,0,0,0,0,0,0,0,4.5935,4.5935,4.5916,4.5916,4.5916,4.5904,4.5904,4.5903,4.5898,4.5898,4.5898,4.5898,4.5883,4.5882,4.5882,0,0,0,0,0,0,0,0,0,0,0,0,0,4.5925,4.5935,4.5916,4.5912,4.5911,4.5904,4.5904,4.5903,4.5898,4.5898,4.5898,4.5898,4.5883,4.5882,4.5882,4.5877,0,0,4.588,4.5879,0,0,0,0,0,0,0,0,4.5926,4.5925,4.5913,4.5912,4.5911,4.5902,4.5905,4.5895,4.5897,4.5903,4.5898,4.5898,4.5889,4.5888,4.5885,4.5877,4.5876,4.588,4.5879,4.5879,4.5879,0,0,0,0,0,0,0,4.5927,4.5925,4.5911,4.5912,4.5912,4.591,4.5909,4.5903,4.5896,4.5902,4.5902,4.59,4.5889,4.5886,4.5885,4.5876,4.588,4.5879,4.5879,4.5878,4.5866,4.5866,0,0,0,0,0,0,4.5928,4.5926,4.5912,4.5911,4.5919,4.591,4.5908,4.5905,4.5896,4.5894,4.59,4.59,4.5887,4.5886,4.5884,4.5881,4.5879,4.5878,4.5878,4.5866,4.5866,4.5866,0,0,0,0,0,0,4.5929,4.5927,4.5912,4.5918,4.5916,4.591,4.5906,4.5905,4.5902,4.5895,4.5893,4.5899,4.5887,4.5885,4.588,4.588,4.5878,4.5878,4.5866,4.5866,4.5866,4.5872,0,0,0,0,0,0,4.5929,4.5927,4.5925,4.5918,4.5916,4.5908,4.5906,4.5905,4.5901,4.5901,4.5893,4.5891,4.5887,4.5881,4.5879,4.5879,4.5877,4.5866,4.5866,4.5866,4.5872,4.5872,4.5873,0,0,0,0,0,4.593,4.5927,4.5925,4.5924,4.5914,4.5908,4.5907,4.5902,4.5901,4.59,4.5895,4.5892,4.588,4.588,4.5879,4.5878,4.5866,4.5866,4.5866,4.5872,4.5872,4.5873,0,0,0,0,0,0,4.5932,4.5925,4.5924,4.5918,4.5914,4.5907,4.5905,4.5902,4.5897,4.5897,4.5891,4.5889,4.5885,4.5881,4.5881,4.5875,4.5873,4.5873,4.5878,4.5878,4.5879,4.588,4.5877,0,0,0,0,0,4.5932,4.5929,4.5923,4.5918,4.5916,4.5911,4.5908,4.5905,4.59,4.5898,4.5893,4.5888,4.5884,4.5881,4.5876,4.5871,4.587,4.587,4.5871,4.5871,4.5871,4.5871,4.5871,4.5866,4.5866,4.5866,0,0,4.5932,4.5928,4.5925,4.5919,4.5915,4.5912,4.5909,4.5905,4.5903,4.5897,4.5893,4.5889,4.5883,4.5879,4.5877,4.5875,4.5873,4.5871,4.5872,4.5871,4.5871,4.5872,4.5872,4.5866,4.5866,4.5866,0,0,4.593,4.5926,4.5923,4.592,4.5915,4.5912,4.5911,4.5906,4.5903,4.5899,4.5896,4.5893,4.5884,4.5881,4.5878,4.5878,4.5876,4.5877,4.5879,4.5879,4.588,4.588,4.5881,4.5882,4.5877,4.5877,4.5877,0,4.593,4.5925,4.5921,4.5918,4.5916,4.5913,4.591,4.5907,4.5901,4.59,4.5898,4.589,4.5886,4.5882,4.5882,4.5879,4.5879,4.5878,4.588,4.588,4.588,4.5882,4.5882,4.5877,4.5877,4.5877,4.5877,0,4.5926,4.5923,4.5921,4.5917,4.5914,4.5911,4.5908,4.5906,4.5904,4.5901,4.5898,4.5893,4.5888,4.5887,4.5884,4.5884,4.5883,4.5881,4.5879,4.5881,4.5883,4.5883,4.5878,4.5877,4.5877,4.5877,0,0,4.5923,4.5919,4.5919,4.5918,4.5914,4.5911,4.5909,4.5906,4.5905,4.5901,4.59,4.5895,4.5893,4.589,4.5887,4.5887,4.589,4.5885,4.5885,4.5887,4.5891,4.5893,4.5894,4.5888,4.5888,4.5888,4.5892,0,4.5921,4.5918,4.5916,4.5913,4.5912,4.591,4.5908,4.5906,4.5904,4.5902,4.5899,4.5896,4.5894,4.5893,4.5892,4.589,4.5891,4.5889,4.5887,4.5887,4.589,4.5894,4.5896,4.59,4.5892,4.5892,4.5892,0,4.5918,4.5916,4.5914,4.5913,4.5912,4.5911,4.5909,4.5907,4.5905,4.5904,4.5902,4.59,4.5898,4.5896,4.5895,4.5894,4.5894,4.5892,4.5892,4.5892,4.589,4.5895,4.5901,4.5902,4.5893,4.5893,4.5893,0,4.5918,4.5915,4.5914,4.5913,4.5911,4.5911,4.591,4.5908,4.5907,4.5905,4.5905,4.5903,4.5902,4.59,4.5898,4.5897,4.5898,4.5895,4.5897,4.5897,4.5897,4.5897,4.5904,4.5896,4.5896,4.5896,4.5896,0,4.5917,4.5916,4.5915,4.5914,4.5914,4.5912,4.5912,4.591,4.5909,4.5909,4.5907,4.5906,4.5903,4.5902,4.59,4.5901,4.59,4.5899,4.5899,4.59,4.59,4.5899,4.5899,4.5896,4.5896,4.5896,4.5896,0,4.5916,4.5915,4.5915,4.5914,4.5914,4.5914,4.5913,4.5913,4.5912,4.5911,4.5911,4.5909,4.5909,4.5907,4.5905,4.5904,4.5905,4.5904,4.5906,4.5906,4.5909,4.5909,4.5916,4.5917,4.5907,4.5907,4.5908,0,4.5915,4.5915,4.5915,4.5916,4.5915,4.5915,4.5915,4.5914,4.5914,4.5913,4.5913,4.5913,4.5913,4.5913,4.5911,4.5911,4.591,4.5912,4.5909,4.5911,4.5911,4.5912,4.5913,4.5913,4.5913,4.5913,4.5913,0,4.5915,4.5915,4.5915,4.5917,4.5917,4.5917,4.5917,4.5917,4.5916,4.5917,4.5917,4.5917,4.5917,4.5918,4.5917,4.5916,4.5915,4.5914,4.5915,4.5916,4.5918,4.5919,4.5909,4.5914,4.5914,4.5914,4.5913,4.5913,4.5915,4.5916,4.5917,4.5918,4.5918,4.5919,4.592,4.592,4.5921,4.5921,4.5921,4.5922,4.5922,4.5922,4.5922,4.5923,4.5922,4.5922,4.5922,4.5923,4.5924,4.5918,4.5922,4.5922,4.5922,4.5922,4.5922,0,4.5916,4.5917,4.5918,4.592,4.5921,4.5921,4.5922,4.5923,4.5924,4.5925,4.5926,4.5927,4.5928,4.5928,4.5929,4.593,4.593,4.5931,4.5931,4.5931,4.5924,4.5924,4.5931,4.5931,4.5931,4.5931,4.5931,4.5931,4.5916,4.5918,4.5919,4.5922,4.5923,4.5925,4.5926,4.5927,4.5928,4.5931,4.5932,4.5932,4.5933,4.5935,4.5936,4.5936,4.5937,4.5939,4.5938,4.5932,4.5931,4.593,4.593,4.5939,4.5939,4.5945,4.5945,4.5945]}]]